Location: Newark
(48.8833°N, 0.9236°W)
Time: 08:00:42
(UTC+00:00)

Transit 4A - Pass Details

Date: 01 December 2019
Orbit: 870 x 975 km, 66.8° (Epoch: 07 December)

Event Time Altitude Azimuth Distance (km) Brightness Sun altitude
Rises 18:45:03 0° 195° (SSW) 3,621 11.2 -24.7°
Reaches altitude 10° 18:47:40 10° 191° (S) 2,666 10.5 -25.2°
Enters shadow 18:52:47 48° 144° (SE) 1,210 8.2 -26.0°
